{"data":{"norad_id":49148,"intl_designator":"2021-082U","name":"STARLINK-3048","alt_names":[],"object_type":"PAYLOAD","status":"ACTIVE","operator":null,"country":"US","launch_date":"2021-09-14","launch_site_code":"AFWTR","launch_vehicle":null,"mission":null,"orbit_class":"UNKNOWN","rcs_meters":null,"size_class":null,"mass_kg":null,"dimensions":null,"purposes":["comms"],"wikipedia_slug":null,"has_3d_model":false,"image_url":null,"decayed_at":null,"tle_current":{"epoch":"2026-05-25T03:29:23.832672Z","epoch_age_seconds":58529,"freshness":"FRESH","line1":"1 49148U 21082U   26145.14541473 -.00001195  00000+0 -94374-4 0  9994","line2":"2 49148  69.9998  82.6996 0003245 264.8816  95.1972 14.97512055257890","mean_motion":14.97512055,"eccentricity":0.0003245,"inclination_deg":69.9998,"raan_deg":82.6996,"arg_perigee_deg":264.8816,"mean_anomaly_deg":95.1972,"bstar":-9.4374e-5,"rev_number":25789,"period_min":96.159493019908,"perigee_km":572.33031086519,"apogee_km":576.84262839698,"semimajor_km":6952.7234696311,"source":"CELESTRAK","updated_at":"2026-05-25T13:38:16.788255Z"}}}